Tracking 18980 objects as of 19-Feb-2018
HD Live streaming from Space Station
objects crossing your sky now

COSMOS 1693

Track COSMOS 1693 now!
10-day predictions
COSMOS 1693 is classified as:


NORAD ID: 16141
Int'l Code: 1985-094D
Perigee: 1,399.8 km
Apogee: 1,424.5 km
Inclination: 82.6 °
Period: 113.9 minutes
Semi major axis: 7783 km
RCS: 0.2624 m2 (medium)
Launch date: October 9, 1985
Source: Commonwealth of Independent States (former USSR) (CIS)
Launch site: PLESETSK MISSILE AND SPACE COMPLEX (PKMTR)
aabbcc
Your satellite tracking list
Your tracking list is empty




NASA's NSSDC Master Catalog

Two Line Element Set (TLE):
1 16141U 85094D   18049.61654352 -.00000002 +00000-0 -68865-4 0  9994
2 16141 082.6104 031.5307 0015876 114.0132 052.2160 12.64347912493409
Source of the keplerian elements: AFSPC